User: anonymous   Login
Location: San Martino di Castrozza
(46.2667°N, 11.8000°E)
Time: 04:18:44
(UTC+00:00)
Language:

Cosmos 858 Rocket - Orbit

View from above orbital plane
View from above orbital plane
View from above satellite
View from above satellite

Ground track
Ground track

The orbit data is extracted from the following two-line orbital elements,

1  9444U 76098B   21174.85030835  .00000047  00000-0  24409-4 0  9992
2  9444  74.0509 117.1154 0014458 257.2576 102.6962 14.37956012779887
Epoch (UTC): 23 June 2021 20:24:26
Eccentricity: 0.0014458
inclination: 74.0509°
perigee height: 755 km
apogee height: 775 km
right ascension of ascending node: 117.1154°
argument of perigee: 257.2576°
revolutions per day: 14.37956012
mean anomaly at epoch: 102.6962°
orbit number at epoch: 77988

The dashed part of the orbit path shows where the satellite is in the earth's shadow,  

DLR